Temperature
13 12 12 12 12 13 13 13 13 13 13 13 13 13 13 14 14 14 14 14 14 14 14 14 14 14 14 15 15 15 15 15 15 15 15 15 15 15 15 15 15 15 15
13 12 12 12 12 12 13 13 13 13 13 13 13 13 13 13 13 14 14 14 14 14 14 14 14 14 14 14 14 14 14 14 14 14 14 14 14 14 14 15 15 14 14
12 12 12 12 12 12 12 13 13 13 13 13 13 13 13 13 13 13 13 14 14 14 14 14 14 14 14 14 14 14 14 14 14 14 14 14 14 14 14 14 14 14 14
12 12 12 12 12 12 12 12 13 13 13 13 13 13 13 13 13 13 13 13 13 13 13 14 14 14 14 14 14 14 14 14 14 14 14 14 14 14 14 14 14 14 14
12 12 12 11 12 12 12 12 12 12 12 12 12 12 12 12 12 13 13 13 13 13 13 13 13 13 13 13 13 13 14 14 14 14 14 13 13 13 14 14 14 14 14
11 11 11 11 11 11 11 12 12 12 12 12 12 12 12 12 12 12 12 13 13 13 13 13 13 13 13 13 13 13 13 13 13 13 13 13 13 13 13 13 13 13 14
11 11 11 11 11 11 11 11 11 11 12 11 11 12 12 12 12 12 12 12 12 12 12 13 13 13 13 13 13 13 13 13 13 13 13 13 13 13 13 13 13 13 13
11 11 11 11 11 11 11 11 11 11 11 11 11 11 11 11 12 12 12 12 12 12 12 12 12 12 12 12 13 13 13 13 13 13 13 13 13 13 13 13 13 13 13
10 10 10 10 10 10 11 10 10 11 11 11 11 11 11 11 11 11 11 11 11 11 11 11 12 12 12 12 12 12 12 12 12 12 12 12 12 13 13 13 13 13 13
10 10 10 10 10 10 10 10 10 10 10 10 10 11 11 11 11 11 11 11 11 11 11 11 11 11 11 12 12 12 12 12 12 12 12 12 12 12 12 12 12 12 12
9 9 9 9 9 10 10 10 10 10 10 10 10 10 10 10 10 10 10 10 10 10 11 11 11 11 11 11 11 11 12 12 12 12 12 12 12 12 12 12 12 12 12
9 9 9 9 9 9 9 9 9 9 9 9 9 9 10 10 10 10 10 10 10 10 10 10 10 11 11 11 11 11 11 11 11 11 11 11 11 11 11 12 12 12 12
9 9 9 8 8 9 9 9 9 9 9 9 9 9 9 9 9 9 9 10 10 10 10 10 10 10 10 10 10 10 11 11 11 11 11 11 11 11 11 11 11 11 11
8 8 8 8 8 8 8 8 8 8 8 8 8 9 9 9 9 9 9 9 9 9 9 9 9 9 9 9 10 10 10 10 10 10 10 11 11 11 11 11 11 11 11
8 8 8 8 8 8 8 7 7 8 8 8 8 8 8 8 8 8 8 8 9 9 9 9 9 9 9 9 9 9 9 10 10 10 10 10 10 10 10 10 10 11 11
7 7 7 7 7 7 7 7 7 7 7 7 7 7 8 8 8 8 8 8 8 8 8 8 8 8 8 8 9 9 9 9 9 9 9 10 10 10 10 10 10 10 10
7 7 7 7 7 7 7 6 6 6 6 6 6 7 7 7 7 7 7 7 7 7 8 8 7 8 8 8 8 8 8 8 9 9 9 9 9 9 9 10 10 10 10
6 6 6 6 6 6 6 6 6 6 6 6 6 6 6 6 6 6 7 7 7 7 7 7 7 7 7 7 7 7 8 8 8 8 8 9 9 9 9 9 9 9 9
5 5 5 5 5 5 5 5 5 5 5 5 5 5 5 5 6 6 6 6 6 6 6 6 6 6 6 6 7 7 7 7 8 8 8 8 8 8 9 9 9 9 9
5 5 5 5 5 5 5 5 5 5 5 4 5 5 5 5 5 5 5 5 5 5 5 6 6 5 6 6 6 6 7 7 7 7 7 8 8 8 8 8 9 9 9
4 4 4 4 4 4 4 4 4 4 4 4 4 4 4 4 5 5 5 5 5 5 5 5 5 5 5 5 5 6 6 6 7 7 7 7 7 7 8 8 8 8 8
3 3 3 3 3 3 3 3 3 4 4 4 3 3 4 4 4 4 4 4 4 4 4 4 4 4 4 4 4 4 5 5 6 6 6 6 7 7 7 7 7 8 8
3 3 3 3 3 3 3 3 3 3 3 3 3 3 3 3 3 3 3 4 4 4 4 4 4 4 4 4 4 4 4 4 4 5 6 6 6 6 6 7 7 7 7
2 2 2 2 2 2 2 2 2 2 2 2 2 2 2 3 3 3 3 3 3 3 3 3 3 3 3 3 3 3 3 3 4 4 5 5 5 6 6 6 6 6 7
1 1 1 1 2 2 2 1 1 1 1 2 2 2 2 2 2 2 2 2 2 2 3 3 3 3 3 2 2 3 3 3 3 3 3 4 5 5 5 6 6 6 6
0 0 1 1 1 1 1 1 1 1 1 1 1 1 1 1 1 1 1 1 2 2 2 2 2 2 2 2 2 2 2 2 3 3 3 3 3 4 5 5 5 5 6
Wind_Speed
2 2 0 3 5 7 8 9 9 10 10 10 11 11 11 11 11 12 12 12 12 12 12 12 12 12 12 13 14 14 13 14 14 14 14 14 14 15 15 15 15 14 16
3 2 2 4 6 7 8 8 9 10 10 9 10 10 10 11 11 11 11 11 12 12 12 12 12 12 13 13 14 13 13 13 14 13 13 13 13 14 14 14 14 13 15
3 2 3 6 7 8 8 8 9 9 10 10 10 10 10 10 10 10 11 11 11 11 12 12 12 12 13 13 13 13 13 13 13 13 11 10 11 13 14 14 14 14 15
4 4 4 7 8 8 9 9 9 9 9 10 10 10 10 10 10 10 11 11 11 11 11 11 12 12 12 12 12 12 12 12 12 11 10 9 9 12 13 13 13 14 14
5 5 5 7 8 9 9 9 9 9 9 10 10 10 9 9 9 10 10 11 11 11 11 11 11 11 12 12 11 11 11 11 11 11 10 8 9 11 12 12 13 13 14
5 5 5 8 8 9 9 9 9 9 9 9 10 10 10 9 9 9 9 10 10 10 10 10 10 10 11 11 11 11 11 10 10 10 9 9 8 10 11 12 12 13 13
4 5 5 7 8 8 8 9 9 9 9 9 9 10 10 9 9 8 9 9 9 9 9 9 9 9 10 10 10 10 11 10 9 9 8 8 8 9 10 11 11 11 12
4 5 5 7 7 8 8 9 9 9 9 9 9 9 9 9 8 8 8 8 8 8 8 9 9 9 9 9 9 9 9 9 7 7 7 7 8 8 8 9 10 10 11
6 6 6 6 6 7 8 8 9 9 9 9 9 9 9 9 9 8 7 7 7 8 7 8 8 8 8 9 9 8 8 8 8 6 6 6 8 8 8 8 9 9 10
5 5 6 7 7 7 8 9 9 9 10 9 9 10 9 9 9 8 7 7 7 7 7 7 8 8 8 9 8 8 7 7 7 5 5 6 7 7 7 7 8 8 9
4 4 4 5 6 6 7 8 9 9 9 9 9 9 9 9 8 8 7 8 8 7 7 7 8 8 9 9 8 8 7 6 5 4 4 5 6 6 6 6 6 7 8
2 2 3 4 5 6 6 7 7 7 7 8 8 8 7 7 7 7 7 8 8 8 7 7 8 8 8 8 7 7 6 6 5 4 3 3 4 4 5 5 6 6 8
3 2 2 3 4 5 5 5 6 6 6 7 7 7 6 7 7 7 7 7 7 7 7 7 7 7 7 6 6 6 6 5 4 3 2 2 2 3 3 4 5 6 7
3 2 2 3 4 4 5 4 5 4 4 5 5 5 5 4 5 5 5 5 6 5 6 6 5 6 6 6 5 5 5 5 4 3 2 2 1 2 3 3 4 5 6
2 2 2 2 3 4 4 3 4 4 4 4 4 4 5 4 3 3 4 4 4 5 4 4 5 5 5 5 5 5 5 5 4 3 2 2 1 1 2 3 4 5 5
2 2 2 2 2 3 3 3 3 3 3 3 3 4 4 3 3 3 3 3 3 3 3 3 4 3 3 4 4 4 4 4 4 4 3 2 2 1 2 2 3 4 5
1 1 2 2 2 3 3 3 3 3 3 3 2 3 3 3 2 2 2 2 2 2 3 3 4 4 3 3 3 4 3 3 3 3 3 3 3 2 1 1 2 3 4
1 1 1 2 2 2 2 2 2 3 3 2 2 3 3 2 2 2 2 1 2 2 2 2 2 1 2 2 2 2 3 3 3 3 3 2 2 2 2 1 1 1 2
1 1 1 1 2 2 2 2 2 2 2 2 2 2 2 2 2 2 1 1 1 2 1 1 1 1 1 1 1 2 2 2 2 2 3 2 2 2 2 2 2 1 1
2 1 1 1 1 1 2 2 2 2 2 2 1 1 1 1 1 2 2 1 1 1 1 1 1 1 1 1 1 2 2 2 1 1 1 2 2 2 2 2 2 1 1
3 2 1 1 1 1 1 1 1 1 0 0 1 1 1 1 1 1 1 1 1 0 0 1 1 1 1 0 1 2 2 1 1 1 1 1 2 2 2 2 2 1 1
2 1 2 1 1 1 1 1 1 1 1 1 1 1 1 1 0 0 1 1 1 0 1 1 1 0 0 0 1 1 1 2 1 1 1 0 1 2 2 2 1 2 1
2 2 2 2 1 1 0 1 1 1 1 0 1 1 2 1 1 1 1 2 2 2 2 2 1 1 1 1 0 1 1 2 1 1 1 1 0 1 1 1 1 1 0
4 3 2 2 1 0 1 1 1 1 1 2 2 2 2 2 2 1 1 2 2 2 3 3 2 1 2 2 1 1 1 1 1 1 2 1 1 1 1 1 1 1 1
4 4 3 2 1 1 0 1 1 1 2 1 1 1 2 2 2 2 2 2 2 2 3 3 2 2 2 2 2 1 1 1 1 2 2 2 1 1 2 1 1 1 2
5 4 4 3 2 2 1 1 2 2 2 1 2 2 2 2 2 2 3 3 3 2 3 4 4 4 3 3 3 2 2 2 2 2 2 3 2 2 2 2 2 2 2
Wind_Direction
241 277 333 91 95 96 100 94 91 89 89 87 86 84 82 79 75 75 76 74 73 73 75 76 76 73 74 76 77 76 77 79 82 82 84 86 89 91 91 88 87 86 89
179 195 125 106 101 98 103 102 96 90 88 89 89 87 84 81 77 73 71 72 71 71 72 72 72 73 74 75 78 79 79 81 80 80 82 85 90 93 94 91 90 90 90
118 124 118 108 103 104 107 102 98 93 87 86 87 87 86 84 82 77 72 71 70 69 69 71 71 71 73 75 77 79 80 81 79 78 80 83 91 93 95 94 93 93 92
109 101 103 104 102 105 105 102 97 93 90 85 84 83 82 82 80 77 72 70 69 68 68 68 69 70 71 73 75 77 79 81 80 78 75 82 92 96 97 97 96 96 94
91 90 108 106 103 101 101 98 95 89 84 84 82 79 78 77 77 76 73 71 70 68 68 67 67 68 68 71 74 75 78 82 80 76 73 79 91 100 101 100 98 96 94
87 88 110 107 105 101 98 98 94 89 84 82 81 77 76 75 72 70 72 72 71 70 69 67 66 68 70 69 70 72 75 81 80 77 74 75 86 99 103 102 100 98 97
91 80 100 110 105 102 97 90 90 87 84 81 78 75 71 70 70 69 68 72 72 72 70 67 66 68 71 70 70 73 74 73 82 80 77 79 88 98 102 102 103 102 101
92 73 86 105 101 98 92 87 84 83 81 78 76 74 71 66 65 66 67 69 69 69 68 70 68 67 69 68 68 74 73 65 75 82 83 87 95 99 101 102 104 107 107
70 64 62 79 89 92 87 81 78 79 77 74 71 70 69 67 61 61 64 64 67 67 66 69 72 70 67 65 67 71 72 65 68 81 85 93 100 101 100 102 105 110 113
64 58 58 65 69 76 80 79 76 72 71 69 66 65 64 65 62 58 59 61 60 63 64 66 71 70 67 65 65 67 68 68 65 73 88 100 105 108 107 106 108 111 116
68 55 57 66 69 72 78 80 76 71 67 64 60 61 60 56 56 56 55 58 58 59 62 63 66 66 64 63 62 62 65 68 64 69 92 105 106 114 119 116 115 115 118
121 75 62 68 70 73 77 78 73 71 65 62 61 59 58 57 52 53 53 56 57 57 59 59 60 59 60 59 56 58 61 59 62 62 86 111 114 115 124 126 123 124 128
153 111 76 72 75 76 74 78 73 69 64 59 59 58 60 59 53 48 47 48 50 51 53 55 56 56 59 59 57 54 54 56 57 58 64 91 127 138 131 136 136 133 135
146 136 104 72 74 78 82 81 78 73 66 56 51 56 62 59 53 45 45 45 50 52 51 52 57 59 59 57 60 55 49 45 41 46 46 43 98 170 165 160 151 147 148
157 155 133 96 91 89 88 85 79 72 70 67 59 53 62 66 60 50 42 44 51 55 59 59 61 60 59 53 53 53 46 36 27 32 31 13 356 209 191 184 178 174 168
177 172 145 118 99 95 99 94 89 83 80 78 63 55 61 65 69 62 49 42 44 50 59 68 70 72 62 59 51 45 41 34 25 19 19 9 356 301 220 205 202 191 182
179 158 159 142 103 100 105 94 96 93 92 78 60 53 55 60 74 72 65 51 35 49 70 75 71 73 69 55 39 33 36 33 28 15 13 17 11 352 308 236 220 199 184
105 136 174 142 120 107 94 100 103 95 87 75 65 54 47 56 75 78 73 51 28 45 85 105 93 75 51 40 24 11 20 25 22 14 18 21 19 8 5 2 299 224 196
51 135 133 119 131 127 95 95 103 96 87 79 69 59 49 60 72 82 82 48 49 67 83 112 85 100 95 44 7 354 6 4 6 16 24 23 28 15 8 354 358 323 254
26 54 109 104 107 114 101 83 81 78 59 62 60 41 43 50 65 81 84 59 58 82 39 52 101 79 124 111 10 353 336 330 9 25 16 29 46 44 40 34 31 6 297
32 35 62 116 105 116 125 137 149 191 246 238 12 7 29 30 72 109 105 100 87 112 74 38 64 102 66 83 49 5 343 330 324 357 43 43 43 41 52 52 40 51 50
19 4 12 336 159 161 192 195 199 205 229 238 357 355 1 358 346 175 151 169 166 143 108 92 77 122 266 78 113 106 328 331 344 334 339 271 24 42 42 46 53 44 57
348 329 325 327 276 197 112 86 72 71 46 45 332 302 316 307 309 291 226 187 186 180 191 201 197 177 223 265 214 163 175 228 300 309 282 253 327 7 11 39 52 13 83
337 332 327 325 320 267 136 148 165 185 226 239 245 264 301 302 299 298 274 223 202 197 197 212 219 230 198 231 270 246 205 181 185 280 293 275 284 281 282 311 309 261 221
348 351 336 343 335 330 205 177 204 231 233 255 266 275 282 299 295 294 274 256 226 219 211 212 223 225 217 221 227 238 237 246 213 205 250 270 295 272 266 259 264 247 206
359 360 357 346 332 333 311 224 216 241 253 253 266 261 273 284 281 289 272 259 250 237 228 222 219 219 224 229 230 231 225 216 209 205 228 256 267 266 274 248 231 231 208
Height
1519 1521 1522 1524 1526 1527 1528 1529 1530 1530 1531 1532 1532 1533 1533 1534 1534 1535 1535 1536 1536 1537 1537 1538 1538 1539 1539 1540 1540 1541 1541 1542 1543 1543 1544 1545 1545 1546 1546 1547 1547 1548 1548
1518 1520 1522 1524 1525 1527 1528 1529 1530 1531 1531 1532 1532 1533 1534 1534 1535 1535 1536 1536 1537 1537 1538 1539 1539 1540 1540 1540 1541 1542 1542 1543 1544 1544 1545 1546 1546 1547 1547 1548 1549 1549 1550
1518 1520 1522 1524 1525 1526 1528 1529 1530 1531 1532 1532 1533 1533 1534 1535 1535 1536 1536 1537 1537 1538 1538 1539 1539 1540 1541 1541 1542 1542 1543 1544 1545 1545 1546 1547 1547 1548 1549 1549 1550 1551 1551
1518 1520 1522 1524 1525 1526 1527 1529 1530 1531 1531 1532 1533 1533 1534 1535 1535 1536 1536 1537 1537 1538 1539 1539 1540 1540 1541 1542 1542 1543 1544 1544 1545 1546 1547 1548 1548 1549 1550 1551 1551 1552 1552
1518 1520 1522 1524 1525 1526 1527 1528 1529 1530 1531 1532 1533 1533 1534 1534 1535 1536 1536 1537 1537 1538 1539 1539 1540 1541 1541 1542 1543 1544 1544 1545 1546 1547 1548 1549 1550 1550 1551 1552 1552 1553 1553
1518 1520 1522 1524 1525 1526 1527 1528 1529 1530 1531 1532 1532 1533 1534 1534 1535 1535 1536 1537 1537 1538 1539 1539 1540 1541 1541 1542 1543 1544 1545 1546 1547 1548 1548 1549 1550 1551 1552 1552 1553 1554 1554
1518 1520 1522 1523 1524 1526 1526 1527 1528 1529 1530 1531 1532 1532 1533 1534 1534 1535 1535 1536 1537 1538 1538 1539 1539 1540 1541 1542 1543 1544 1545 1546 1547 1548 1549 1550 1551 1552 1553 1553 1554 1554 1555
1518 1520 1521 1523 1524 1525 1526 1527 1528 1528 1529 1530 1531 1532 1532 1533 1534 1534 1535 1535 1536 1537 1538 1538 1539 1540 1541 1542 1543 1544 1545 1546 1547 1548 1549 1550 1551 1552 1553 1554 1554 1555 1555
1518 1519 1521 1522 1523 1524 1525 1526 1527 1528 1529 1529 1530 1531 1532 1532 1533 1533 1534 1535 1535 1536 1537 1538 1538 1539 1540 1541 1542 1543 1545 1546 1547 1548 1549 1550 1551 1552 1553 1554 1554 1555 1556
1517 1519 1520 1521 1522 1523 1524 1525 1526 1527 1527 1528 1529 1530 1531 1531 1532 1532 1533 1534 1534 1535 1536 1537 1537 1538 1539 1540 1541 1542 1544 1545 1546 1548 1549 1550 1551 1552 1553 1554 1554 1555 1556
1516 1517 1519 1520 1521 1522 1523 1524 1524 1525 1526 1527 1528 1529 1529 1530 1530 1531 1532 1532 1533 1534 1534 1535 1536 1537 1538 1539 1540 1541 1543 1544 1546 1547 1548 1550 1551 1551 1552 1553 1554 1555 1556
1514 1516 1517 1518 1520 1521 1522 1522 1523 1524 1525 1525 1526 1527 1528 1528 1529 1529 1530 1531 1531 1532 1533 1534 1534 1535 1536 1537 1539 1540 1541 1543 1544 1546 1547 1548 1550 1551 1552 1553 1553 1554 1555
1513 1514 1516 1517 1518 1519 1520 1521 1521 1522 1523 1523 1524 1525 1526 1526 1527 1527 1528 1529 1530 1530 1531 1532 1533 1534 1535 1536 1537 1538 1540 1541 1542 1544 1545 1547 1548 1549 1550 1551 1553 1554 1555
1511 1512 1514 1515 1517 1517 1518 1519 1519 1520 1521 1522 1522 1523 1523 1524 1524 1525 1526 1526 1527 1528 1529 1530 1530 1531 1533 1534 1535 1536 1538 1539 1540 1542 1543 1545 1546 1548 1549 1550 1551 1552 1554
1509 1511 1512 1513 1514 1515 1516 1517 1518 1518 1519 1519 1520 1520 1521 1521 1522 1522 1523 1524 1525 1526 1527 1527 1528 1529 1530 1532 1533 1534 1535 1537 1538 1540 1541 1543 1544 1546 1547 1548 1549 1551 1552
1507 1508 1510 1511 1512 1513 1514 1515 1516 1516 1517 1517 1518 1518 1518 1519 1519 1520 1520 1521 1522 1523 1524 1525 1526 1527 1528 1529 1530 1531 1533 1534 1536 1537 1539 1540 1542 1543 1545 1546 1547 1549 1550
1505 1506 1508 1509 1510 1511 1512 1512 1513 1514 1514 1515 1515 1515 1516 1516 1517 1517 1518 1518 1519 1520 1521 1522 1523 1524 1525 1526 1527 1528 1530 1531 1532 1534 1536 1537 1539 1541 1542 1544 1545 1547 1548
1503 1504 1505 1506 1507 1508 1509 1510 1511 1512 1512 1512 1513 1513 1513 1513 1514 1514 1515 1516 1517 1517 1518 1519 1520 1521 1522 1523 1524 1525 1527 1528 1529 1531 1533 1534 1536 1538 1539 1541 1543 1544 1546
1500 1502 1503 1504 1505 1506 1507 1507 1508 1509 1509 1510 1510 1510 1510 1511 1511 1511 1512 1513 1514 1515 1516 1516 1517 1518 1519 1520 1521 1522 1523 1525 1526 1527 1529 1531 1533 1534 1536 1538 1540 1541 1543
1498 1499 1500 1501 1502 1503 1504 1505 1506 1506 1507 1507 1507 1507 1507 1507 1508 1508 1509 1510 1510 1511 1513 1513 1514 1515 1516 1517 1518 1519 1520 1521 1523 1524 1526 1527 1529 1531 1533 1534 1536 1538 1540
1495 1496 1497 1498 1499 1500 1500 1501 1502 1502 1503 1504 1504 1504 1504 1504 1505 1506 1506 1507 1507 1508 1509 1510 1511 1512 1514 1515 1515 1516 1517 1518 1519 1521 1522 1524 1526 1527 1529 1531 1533 1535 1536
1492 1492 1493 1495 1496 1497 1497 1498 1499 1499 1500 1500 1501 1501 1501 1501 1502 1502 1503 1503 1504 1505 1506 1507 1508 1509 1510 1512 1513 1513 1514 1516 1515 1517 1519 1520 1522 1524 1525 1527 1529 1531 1532
1489 1489 1490 1491 1493 1494 1495 1495 1496 1496 1496 1497 1497 1497 1498 1498 1498 1499 1500 1500 1501 1502 1503 1504 1505 1506 1507 1509 1510 1512 1512 1512 1512 1513 1514 1516 1518 1520 1522 1524 1525 1527 1528
1487 1488 1488 1489 1490 1491 1491 1492 1492 1492 1492 1492 1493 1493 1494 1494 1495 1495 1496 1497 1497 1498 1499 1500 1502 1503 1504 1505 1507 1508 1510 1510 1511 1509 1511 1512 1514 1516 1518 1519 1521 1523 1524
1486 1486 1486 1486 1487 1487 1488 1488 1488 1488 1489 1489 1489 1490 1490 1490 1491 1492 1493 1493 1494 1495 1495 1497 1498 1499 1500 1501 1503 1504 1505 1506 1507 1508 1507 1508 1509 1511 1513 1515 1517 1519 1520
1484 1484 1484 1483 1484 1484 1485 1485 1485 1485 1485 1485 1485 1485 1486 1487 1487 1488 1489 1489 1489 1490 1491 1492 1493 1495 1496 1497 1498 1500 1501 1503 1503 1505 1504 1504 1505 1506 1508 1510 1512 1514 1516